Location: El Gallo
(32.4380°N, 116.9347°W)
Time: 18:44:33
(UTC+00:00)

CZ-2D R/B - Pass Details

Date: 01 October 2022
Orbit: 551 x 632 km, 98.0° (Epoch: 01 December)

Event Time Altitude Azimuth Distance (km) Brightness Sun altitude
Rises 12:19:32 0° 1° (N) 2,734 7.0 -18.2°
Reaches altitude 10° 12:21:45 10° 353° (N) 1,842 6.0 -17.7°
Maximum altitude 12:25:24 36° 286° (WNW) 907 3.9 -16.9°
Enters shadow 12:25:53 34° 270° (W) 933 3.9 -16.8°
